{"data":{"norad_id":59749,"intl_designator":"2024-090V","name":"STARLINK-31677","alt_names":[],"object_type":"PAYLOAD","status":"ACTIVE","operator":null,"country":"US","launch_date":"2024-05-13","launch_site_code":"AFETR","launch_vehicle":null,"mission":null,"orbit_class":"UNKNOWN","rcs_meters":null,"size_class":null,"mass_kg":null,"dimensions":null,"purposes":["comms"],"wikipedia_slug":null,"has_3d_model":false,"image_url":null,"decayed_at":null,"tle_current":{"epoch":"2026-05-24T23:21:52.807968Z","epoch_age_seconds":71301,"freshness":"FRESH","line1":"1 59749U 24090V   26144.97352787 -.00001470  00000+0 -43884-4 0  9998","line2":"2 59749  43.0028 112.9476 0001663 273.3032  86.7630 15.27586291115091","mean_motion":15.27586291,"eccentricity":0.0001663,"inclination_deg":43.0028,"raan_deg":112.9476,"arg_perigee_deg":273.3032,"mean_anomaly_deg":86.763,"bstar":-4.3884e-5,"rev_number":11509,"period_min":94.266360498518,"perigee_km":481.88924647202,"apogee_km":484.17127070223,"semimajor_km":6861.1672585871,"source":"CELESTRAK","updated_at":"2026-05-25T13:38:19.054645Z"}}}